Monterey, CA

2:42 AM PDT on April 27, 2017 (GMT -0700)
Monterey Peninsula

Weather History for KMRY - March, 2014

Change the Weather History Date:

Wednesday, March 5, 2014

  Actual Average Record
Temperature  
Mean Temperature 59 °F 53 °F  
Max Temperature 66 °F 61 °F 73 °F (2015)
Min Temperature 51 °F 46 °F 37 °F (1999)
Degree Days  
Heating Degree Days 6    
Month to date heating degree days 39  
Since 1 July heating degree days 1843  
Cooling Degree Days 0    
Month to date cooling degree days 0  
Year to date cooling degree days 2  
Growing Degree Days 8 (Base 50)    
Moisture  
Dew Point 52 °F    
Average Humidity 84    
Maximum Humidity 100    
Minimum Humidity 67    
Precipitation  
Precipitation 0.01 in - 1.86 in (2016)
Month to date precipitation 0.98  
Year to date precipitation 4.78  
Since 1 July precipitation 6.06  
Sea Level Pressure  
Sea Level Pressure 30.11 in    
Wind  
Wind Speed 4 mph (NNE)    
Max Wind Speed 12 mph    
Max Gust Speed 30 mph    
Visibility 6 miles    
Events Fog , Rain    
T = Trace of Precipitation, MM = Missing Value Source: NWS Daily Summary

Daily Weather History Graph

Daily Weather History Graph

Search for Another Location

Airport or City:

Trip Planner

Search our weather history database for the weather conditions in past years. The results will help you decide how hot, cold, wet, or windy it might be!

Date:

Astronomy

Mar. 05, 2014 Rise Set
Actual Time 6:32 AM PST 6:05 PM PST
Civil Twilight 6:06 AM PST 6:31 PM PST
Nautical Twilight 5:36 AM PST 7:01 PM PST
Astronomical Twilight 5:06 AM PST 7:31 PM PST
Moon 9:09 AM PST (3/5) 11:10 PM PST (3/5)
Length of Visible Light 12h 25m
Length of Day
11h 33m
Waxing Crescent, 24% of the Moon is Illuminated
Mar 5
Waxing Crescent
Mar 8
First Quarter
Mar 16
Full
Mar 23
Last Quarter
Mar 30
New

Hourly Weather History & Observations

Time (PST) Temp. Dew Point Humidity Pressure Visibility Wind Dir Wind Speed Gust Speed Precip Events Conditions
12:19 AM 53.6 °F 51.8 °F 94% 30.11 in 0.8 mi Calm Calm - N/A   Overcast
12:26 AM 53.6 °F 51.8 °F 94% 30.11 in 1.0 mi Calm Calm - N/A   Overcast
12:39 AM 53.6 °F 51.8 °F 94% 30.11 in 3.0 mi Calm Calm - N/A   Overcast
12:45 AM 53.6 °F 53.6 °F 100% 30.11 in 1.8 mi Calm Calm - N/A   Overcast
12:54 AM 53.1 °F 52.0 °F 96% 30.15 in 1.0 mi Calm Calm - N/A   Overcast
1:00 AM 53.6 °F 51.8 °F 94% 30.12 in 0.8 mi Calm Calm - N/A   Mist
1:54 AM 52.0 °F 51.1 °F 97% 30.14 in 0.2 mi East 4.6 mph - N/A Fog Fog
2:11 AM 51.8 °F 51.8 °F 100% 30.11 in 0.5 mi Calm Calm - N/A Fog Fog
2:29 AM 51.8 °F 51.8 °F 100% 30.11 in 1.0 mi Calm Calm - N/A   Mist
2:35 AM 51.8 °F 51.8 °F 100% 30.11 in 3.0 mi Calm Calm - N/A   Overcast
2:49 AM 51.8 °F 51.8 °F 100% 30.11 in 1.8 mi Calm Calm - N/A   Overcast
2:54 AM 52.0 °F 51.1 °F 97% 30.15 in 1.0 mi Calm Calm - N/A   Overcast
3:02 AM 51.8 °F 50.0 °F 94% 30.10 in 0.5 mi Calm Calm - N/A Fog Fog
3:14 AM 51.8 °F 51.8 °F 100% 30.10 in 0.2 mi Calm Calm - N/A Fog Fog
3:32 AM 51.8 °F 51.8 °F 100% 30.10 in 0.8 mi ENE 3.5 mph - N/A   Mist
3:54 AM 52.0 °F 50.0 °F 93% 30.13 in 0.5 mi East 4.6 mph - N/A Fog Fog
4:24 AM 51.8 °F 51.8 °F 100% 30.10 in 1.5 mi Calm Calm - 0.01 in   Overcast
4:29 AM 51.8 °F 51.8 °F 100% 30.10 in 3.0 mi Calm Calm - 0.01 in   Overcast
4:32 AM 51.8 °F 51.8 °F 100% 30.10 in 1.8 mi Calm Calm - 0.01 in   Overcast
4:43 AM 51.8 °F 50.0 °F 94% 30.10 in 3.0 mi East 4.6 mph - 0.01 in   Overcast
4:54 AM 51.1 °F 50.0 °F 96% 30.13 in 6.0 mi East 4.6 mph - 0.01 in   Mostly Cloudy
5:05 AM 51.8 °F 50.0 °F 94% 30.09 in 10.0 mi East 5.8 mph - N/A   Scattered Clouds
5:54 AM 51.1 °F 50.0 °F 96% 30.14 in 10.0 mi Calm Calm - N/A   Clear
6:54 AM 51.1 °F 48.9 °F 92% 30.13 in 10.0 mi Calm Calm - N/A   Clear
7:54 AM 54.0 °F 52.0 °F 93% 30.14 in 10.0 mi Calm Calm - N/A   Clear
8:54 AM 55.9 °F 53.1 °F 90% 30.16 in 10.0 mi West 3.5 mph - N/A   Clear
9:54 AM 57.0 °F 52.0 °F 83% 30.17 in 9.0 mi WNW 5.8 mph - N/A   Clear
10:54 AM 62.1 °F 55.0 °F 78% 30.15 in 10.0 mi Calm Calm - N/A   Clear
11:54 AM 64.9 °F 55.0 °F 70% 30.15 in 10.0 mi West 5.8 mph - N/A   Mostly Cloudy
12:54 PM 66.0 °F 55.0 °F 68% 30.13 in 10.0 mi West 8.1 mph - N/A   Overcast
1:54 PM 64.9 °F 54.0 °F 68% 30.12 in 10.0 mi SW 6.9 mph - N/A   Clear
2:54 PM 64.9 °F 55.0 °F 70% 30.10 in 10.0 mi NW 5.8 mph - N/A   Mostly Cloudy
3:54 PM 59.0 °F 54.0 °F 83% 30.12 in 10.0 mi WNW 6.9 mph - N/A   Overcast
4:54 PM 62.1 °F 53.1 °F 72% 30.11 in 10.0 mi Variable 6.9 mph - N/A   Overcast
5:54 PM 63.0 °F 51.1 °F 65% 30.12 in 10.0 mi SW 9.2 mph - N/A   Overcast
6:54 PM 61.0 °F 53.1 °F 75% 30.11 in 10.0 mi NE 4.6 mph - N/A   Overcast
7:20 PM 60.8 °F 53.6 °F 77% 30.07 in 10.0 mi Calm Calm - N/A   Overcast
7:43 PM 60.8 °F 53.6 °F 77% 30.07 in 10.0 mi Calm Calm - N/A   Overcast
7:54 PM 60.1 °F 54.0 °F 80% 30.11 in 10.0 mi NNE 3.5 mph - N/A   Overcast
8:42 PM 59.0 °F 53.6 °F 82% 30.07 in 10.0 mi WNW 5.8 mph - N/A   Overcast
8:54 PM 57.9 °F 54.0 °F 87% 30.11 in 8.0 mi WNW 3.5 mph - N/A   Overcast
9:28 PM 57.2 °F 53.6 °F 88% 30.06 in 9.0 mi East 3.5 mph - N/A   Overcast
9:54 PM 59.0 °F 54.0 °F 83% 30.10 in 10.0 mi East 3.5 mph - N/A   Overcast
10:42 PM 59.0 °F 53.6 °F 82% 30.07 in 10.0 mi Calm Calm - N/A   Overcast
10:54 PM 59.0 °F 55.0 °F 87% 30.12 in 10.0 mi Calm Calm - N/A   Overcast
11:54 PM 57.9 °F 55.0 °F 90% 30.12 in 4.0 mi NE 3.5 mph - 0.00 in Rain Light Rain